Weather in Mikhaylovsk

Russia / Sverdlovsk Oblast     56°26′08″N   59°07′13″E
temp.,
°C
wind,
m/s
gust,
m/s
humid.,
%
clouds,
%
prec.,
mm/h
press.,
hPa
HPBL,
m
26 june, sun
sun2623:00+11nw25880 0.4 1005109
02:00+9wnw210950 0.0 1006312
05:00+8wnw399864 0.0 1007436
08:00+11nw596668 0.0 10061235
11:00+11nw5969100 0.2 10071295
14:00+11nw51067100 0.1 10081330
17:00+9nw5972100 0.2 10091202
20:00+7nw51078100 0.0 1010980
27 june, mon
mon2723:00+6nw4983100 0.1 1012899
02:00+6nw4984100 0.0 1012697
05:00+6nw388268 0.0 1013575
08:00+8nw4770100 0.0 1013732
11:00+14wnw58495 0.0 10111154
14:00+18w584616 0.0 10091505
17:00+19wsw6105092 0.0 10061591
20:00+14w5129647 7.1 1004894
28 june, tue
tue2823:00+11nnw5119571 7.6 1006709
02:00+5nnw51096100 0.1 1009630
05:00+3nnw498798 0.1 1010840
08:00+6nw5763100 0.0 10101177
11:00+7nw476799 0.1 10091465
14:00+7nw587087 0.4 10101318
17:00+8nnw596796 0.8 10101425
20:00+6nw5108697 0.4 10111054
29 june, wed
wed2923:00+5nw4108385 0.5 1010873
02:00+5wnw4985100 0.0 10091085
05:00+4nw41091100 0.1 1009772
08:00+5nw41193100 0.1 1009642
11:00+7nw41287100 0.1 1009693
14:00+14nnw5105796 0.0 10081471
17:00+16nnw395596 0.1 10081975
20:00+15nw495641 0.0 1007809
30 june, thu
thu3023:00+10nw3107787 0.0 1008269
02:00+7wnw278590 0.0 1008179
05:00+7wnw278296 0.0 1007187
08:00+11nw36595 0.0 1006485
11:00+15nnw3538100 0.0 10062545
14:00+15n233997 0.0 10062147
17:00+12ne467671 0.4 1007663
20:00+10ne488847 0.9 1009662